Juneau, AK

11:37 AM AKDT on July 22, 2017 (GMT -0800)
Juneau International

Weather History for PAJN - April, 2014

Change the Weather History Date:

Tuesday, April 15, 2014

  Actual Average Record
Temperature  
Mean Temperature 44 °F 41 °F  
Max Temperature 53 °F 48 °F 62 °F (1990)
Min Temperature 35 °F 33 °F 24 °F (2005)
Degree Days  
Heating Degree Days 21 24  
Month to date heating degree days 398 392  
Since 1 July heating degree days 7071 7196  
Cooling Degree Days 0 0  
Month to date cooling degree days 0 0  
Year to date cooling degree days 0 0  
Moisture  
Dew Point 36 °F    
Average Humidity 73    
Maximum Humidity 92    
Minimum Humidity 54    
Precipitation  
Precipitation T in 0.09 in 1.49 in (1999)
Month to date precipitation 1.91 1.52  
Year to date precipitation 17.49 14.78  
Snow  
Snow 0.00 in 0.00 in 1.50 in (1972)
Month to date snowfall 0.3 0.9  
Since 1 July snowfall 97.1 86.5  
Snow Depth 0.00 in    
Sea Level Pressure  
Sea Level Pressure 29.89 in    
Wind  
Wind Speed 7 mph (SSW)    
Max Wind Speed 14 mph    
Max Gust Speed 18 mph    
Visibility 10 miles    
Events      
T = Trace of Precipitation, MM = Missing Value Source: NWS Daily Summary

Daily Weather History Graph

Daily Weather History Graph

Search for Another Location

Airport or City:

Trip Planner

Search our weather history database for the weather conditions in past years. The results will help you decide how hot, cold, wet, or windy it might be!

Date:

Astronomy

Apr. 15, 2014 Rise Set
Actual Time 5:46 AM AKDT 8:12 PM AKDT
Civil Twilight 5:02 AM AKDT 8:55 PM AKDT
Nautical Twilight 4:05 AM AKDT 9:53 PM AKDT
Astronomical Twilight 2:52 AM AKDT 11:08 PM AKDT
Moon 9:12 PM AKDT (4/15) 5:55 AM AKDT (4/15)
Length of Visible Light 15h 53m
Length of Day
14h 25m
Full, 100% of the Moon is Illuminated
Apr 15
Full
Apr 21
Last Quarter
Apr 28
New
May 6
First Quarter
May 14
Full

Hourly Weather History & Observations

Time (AKDT) Temp. Windchill Dew Point Humidity Pressure Visibility Wind Dir Wind Speed Gust Speed Precip Events Conditions
12:53 AM 37.9 °F - 35.1 °F 89% 29.85 in 10.0 mi Calm Calm - N/A   Overcast
1:53 AM 37.9 °F - 36.0 °F 93% 29.85 in 10.0 mi Calm Calm - N/A   Overcast
2:53 AM 37.0 °F 34.5 °F 34.0 °F 89% 29.85 in 10.0 mi ESE 3.5 mph - N/A   Overcast
3:53 AM 37.0 °F - 35.1 °F 93% 29.86 in 10.0 mi Calm Calm - N/A   Overcast
4:53 AM 37.0 °F - 34.0 °F 89% 29.86 in 10.0 mi Calm Calm - N/A   Overcast
5:53 AM 36.0 °F - 34.0 °F 93% 29.87 in 10.0 mi Calm Calm - N/A   Overcast
6:53 AM 37.0 °F - 34.0 °F 89% 29.87 in 10.0 mi Calm Calm - N/A   Mostly Cloudy
7:53 AM 39.9 °F - 35.1 °F 83% 29.88 in 10.0 mi Calm Calm - N/A   Scattered Clouds
8:53 AM 43.0 °F 40.3 °F 37.0 °F 80% 29.89 in 10.0 mi West 4.6 mph - N/A   Mostly Cloudy
9:53 AM 45.0 °F 41.8 °F 37.9 °F 76% 29.90 in 10.0 mi West 5.8 mph - N/A   Mostly Cloudy
10:53 AM 46.9 °F - 37.9 °F 71% 29.90 in 10.0 mi WSW 6.9 mph - N/A   Mostly Cloudy
11:53 AM 48.9 °F - 37.9 °F 66% 29.90 in 10.0 mi WSW 11.5 mph - N/A   Mostly Cloudy
12:53 PM 51.1 °F - 36.0 °F 56% 29.90 in 10.0 mi WSW 9.2 mph - N/A   Mostly Cloudy
1:53 PM 48.9 °F - 36.0 °F 61% 29.90 in 10.0 mi WSW 10.4 mph - N/A   Mostly Cloudy
2:53 PM 51.1 °F - 36.0 °F 56% 29.91 in 10.0 mi WSW 10.4 mph - N/A   Mostly Cloudy
3:53 PM 52.0 °F - 36.0 °F 54% 29.90 in 10.0 mi WSW 9.2 mph - N/A   Mostly Cloudy
4:53 PM 52.0 °F - 36.0 °F 54% 29.90 in 10.0 mi WSW 6.9 mph - N/A   Mostly Cloudy
5:53 PM 50.0 °F - 37.0 °F 61% 29.90 in 10.0 mi WSW 5.8 mph - N/A   Mostly Cloudy
6:53 PM 50.0 °F - 37.0 °F 61% 29.91 in 10.0 mi East 6.9 mph - N/A   Mostly Cloudy
7:53 PM 46.9 °F - 37.0 °F 68% 29.91 in 10.0 mi East 10.4 mph - N/A   Mostly Cloudy
8:53 PM 46.0 °F 40.6 °F 37.0 °F 71% 29.92 in 10.0 mi East 11.5 mph - N/A   Mostly Cloudy
9:53 PM 45.0 °F 39.3 °F 37.0 °F 74% 29.93 in 10.0 mi ESE 11.5 mph - N/A   Mostly Cloudy
10:53 PM 44.1 °F 38.6 °F 37.9 °F 79% 29.94 in 10.0 mi East 10.4 mph - 0.00 in   Overcast
11:53 PM 43.0 °F 37.2 °F 39.0 °F 86% 29.93 in 10.0 mi East 10.4 mph - 0.00 in   Overcast